Latest Coastal Weather Observations for Middle Percy Island

IDQ60701

Issued at 11:52 pm EST Wednesday 10 August 2022 (issued every 10 minutes, with the page automatically refreshed every 10 minutes)

About coastal observations | Map of coastal stations | Coastal observations for QLD | Marine services | Other Formats
Station Details ID: 200001 Name: MIDDLE PERCY ISLAND Lat: -21.66 Lon: 150.27 Height: 208.7 m
Data from the previous 72 hours. | See also: Recent months at Middle Percy Island
Date/Time
EST
Wind Sea
Height
m
Swell Vis
km
Cloud Weather Temp
°C
Press
MSL
hPa
Rain since
9am
mm
Dir  Spd
kts
Gust
kts
Height
m
Period
s
Dir
10/11:30pm SE 16 23 - - - - - - - 17.3 1021.9 0.0
10/11:00pm SE 17 23 - - - - - - - 17.3 1022.0 0.0
10/10:30pm SE 16 25 - - - - - - - 17.2 1022.2 0.0
10/10:00pm SE 19 28 - - - - - - - 17.3 1022.3 0.0
10/09:30pm SE 19 25 - - - - - - - 17.4 1022.3 0.0
10/09:00pm SE 18 26 - - - - - - - 17.4 1022.4 0.0
10/08:48pm SE 15 25 - - - - - - - 17.3 1022.3 0.0
10/08:30pm SE 18 26 - - - - - - - 17.3 1022.3 0.0
10/08:00pm SE 17 25 - - - - - - - 17.2 1021.9 0.0
10/07:30pm SSE 16 22 - - - - - - - 17.3 1021.8 0.0
10/07:00pm SE 15 20 - - - - - - - 17.2 1021.6 0.0
10/06:30pm SE 16 22 - - - - - - - 17.2 1021.2 0.0
10/06:00pm SE 16 23 - - - - - - - 17.2 1020.9 0.0
10/05:30pm ESE 16 22 - - - - - - - 17.4 1020.7 0.0
10/05:00pm SE 16 24 - - - - - - - 17.8 1020.4 0.0
10/04:30pm SE 15 20 - - - - - - - 18.2 1020.2 0.0
10/04:00pm SE 14 23 - - - - - - - 18.7 1020.2 0.0
10/03:30pm SE 14 21 - - - - - - - 18.4 1020.2 0.0
10/03:00pm SSE 14 22 - - - - - - - 18.7 1020.2 0.0
10/02:30pm SSE 14 20 - - - - - - - 18.8 1020.2 0.0
10/02:00pm SE 14 21 - - - - - - - 19.6 1020.5 0.0
10/01:30pm SE 14 18 - - - - - - - 19.3 1020.8 0.0
10/01:00pm SSE 14 20 - - - - - - - 19.2 1021.0 0.0
10/12:30pm SE 15 21 - - - - - - - 19.2 1021.2 0.0
10/12:00pm SSE 14 20 - - - - - - - 19.4 1021.6 0.0
10/11:30am SE 13 18 - - - - - - - 19.1 1022.1 0.0
10/11:00am SSE 15 19 - - - - - - - 18.9 1022.3 0.0
10/10:30am SSE 15 21 - - - - - - - 18.8 1022.5 0.0
10/10:00am SSE 14 19 - - - - - - - 18.3 1022.6 0.0
10/09:30am SSE 13 16 - - - - - - - 17.9 1022.6 0.0
10/09:00am SSE 13 19 - - - - - - - 17.7 1022.6 0.0
10/08:30am SSE 12 16 - - - - - - - 17.7 1022.4 0.0
10/08:00am SSE 13 17 - - - - - - - 17.3 1022.1 0.0
10/07:30am SSE 13 18 - - - - - - - 17.3 1021.8 0.0
10/07:00am SE 12 17 - - - - - - - 16.8 1021.4 0.0
10/06:30am SSE 12 17 - - - - - - - 16.3 1020.9 0.0
10/06:00am SSE 11 17 - - - - - - - 16.4 1020.5 0.0
10/05:30am SSE 12 16 - - - - - - - 16.4 1020.1 0.0
10/05:00am SSE 10 13 - - - - - - - 16.1 1019.8 0.0
10/04:30am SE 10 14 - - - - - - - 16.2 1019.6 0.0
10/04:00am SE 9 14 - - - - - - - 16.2 1019.5 0.0
10/03:30am SSE 8 11 - - - - - - - 15.7 1019.7 0.0
10/03:00am SE 8 10 - - - - - - - 15.8 1019.9 0.0
10/02:30am SE 8 11 - - - - - - - 16.1 1020.0 0.0
10/02:00am SE 7 10 - - - - - - - 16.1 1020.2 0.0
10/01:30am ESE 6 9 - - - - - - - 16.1 1020.3 0.0
10/01:00am SE 6 10 - - - - - - - 16.0 1020.4 0.0
10/12:30am SE 8 11 - - - - - - - 16.3 1020.5 0.0
10/12:00am ESE 6 11 - - - - - - - 16.1 1020.8 0.0
 
Date/Time
EST
Wind Sea
Height
m
Swell Vis
km
Cloud Weather Temp
°C
Press
MSL
hPa
Rain since
9am
mm
Dir  Spd
kts
Gust
kts
Height
m
Period
s
Dir
09/11:30pm SE 7 11 - - - - - - - 16.2 1020.8 0.0
09/11:00pm ESE 7 11 - - - - - - - 16.4 1020.9 0.0
09/10:30pm ESE 7 12 - - - - - - - 16.1 1020.8 0.0
09/10:00pm ESE 7 12 - - - - - - - 16.3 1020.8 0.0
09/09:30pm ESE 8 12 - - - - - - - 16.5 1020.7 0.0
09/09:00pm ESE 9 13 - - - - - - - 16.5 1020.6 0.0
09/08:30pm ESE 9 15 - - - - - - - 16.5 1020.6 0.0
09/08:00pm ESE 10 15 - - - - - - - 16.6 1020.2 0.0
09/07:30pm ESE 9 13 - - - - - - - 16.5 1019.9 0.0
09/07:00pm ESE 8 13 - - - - - - - 16.3 1019.5 0.0
09/06:30pm SE 8 11 - - - - - - - 16.1 1019.1 0.0
09/06:00pm ESE 7 11 - - - - - - - 16.1 1018.8 0.0
09/05:30pm ESE 8 12 - - - - - - - 16.6 1018.5 0.0
09/05:00pm SE 8 11 - - - - - - - 17.1 1018.2 0.0
09/04:30pm SE 9 12 - - - - - - - 17.6 1018.0 0.0
09/04:00pm SSE 8 12 - - - - - - - 18.3 1017.7 0.0
09/03:30pm S 11 15 - - - - - - - 18.1 1017.6 0.0
09/03:00pm SSE 12 15 - - - - - - - 18.2 1017.6 0.0
09/02:30pm SSE 12 16 - - - - - - - 18.6 1017.7 0.0
09/02:00pm SSE 12 16 - - - - - - - 18.5 1017.8 0.0
09/01:30pm SSE 13 16 - - - - - - - 18.6 1018.1 0.0
09/01:00pm SSE 12 16 - - - - - - - 18.7 1018.5 0.0
09/12:30pm SSE 14 18 - - - - - - - 18.7 1018.9 0.0
09/12:00pm S 13 18 - - - - - - - 18.3 1019.4 0.0
09/11:30am S 15 18 - - - - - - - 18.0 1019.8 0.0
09/11:00am S 13 18 - - - - - - - 18.1 1020.0 0.0
09/10:30am S 15 19 - - - - - - - 17.7 1020.2 0.0
09/10:00am S 15 19 - - - - - - - 17.6 1020.4 0.0
09/09:30am SSE 14 18 - - - - - - - 17.4 1020.4 0.0
09/09:00am S 13 17 - - - - - - - 17.1 1020.3 0.0
09/08:30am SSE 13 18 - - - - - - - 16.9 1020.2 0.0
09/08:00am S 13 18 - - - - - - - 16.5 1020.1 0.0
09/07:30am SSE 9 13 - - - - - - - 16.5 1020.0 0.0
09/07:00am SSE 8 10 - - - - - - - 15.7 1019.9 0.0
09/06:30am SSE 8 11 - - - - - - - 15.4 1019.6 0.0
09/06:00am SSE 9 12 - - - - - - - 15.5 1019.1 0.0
09/05:30am S 9 14 - - - - - - - 15.4 1019.0 0.0
09/05:00am SSE 8 12 - - - - - - - 15.4 1018.8 0.0
09/04:30am SSE 9 13 - - - - - - - 15.6 1018.5 0.0
09/04:00am SSE 7 9 - - - - - - - 15.5 1018.5 0.0
09/03:30am SSE 7 9 - - - - - - - 15.3 1018.5 0.0
09/03:00am SSE 7 9 - - - - - - - 15.3 1018.6 0.0
09/02:30am SSE 7 9 - - - - - - - 15.2 1018.7 0.0
09/02:00am SSE 7 10 - - - - - - - 15.3 1019.0 0.0
09/01:30am SSE 9 11 - - - - - - - 15.3 1019.3 0.0
09/01:00am SSE 12 16 - - - - - - - 15.8 1019.6 0.0
09/12:30am SSE 10 13 - - - - - - - 15.8 1019.7 0.0
09/12:00am SSE 9 11 - - - - - - - 15.9 1019.7 0.0
 
Date/Time
EST
Wind Sea
Height
m
Swell Vis
km
Cloud Weather Temp
°C
Press
MSL
hPa
Rain since
9am
mm
Dir  Spd
kts
Gust
kts
Height
m
Period
s
Dir
08/11:30pm SSE 9 13 - - - - - - - 16.0 1019.7 0.0
08/11:00pm S 9 14 - - - - - - - 16.1 1019.9 0.0
08/10:30pm SSE 8 11 - - - - - - - 16.0 1019.9 0.0
08/10:00pm SSE 9 13 - - - - - - - 16.1 1019.8 0.0
08/09:30pm SSE 10 13 - - - - - - - 16.3 1019.8 0.0
08/09:00pm SSE 9 14 - - - - - - - 16.1 1019.7 0.0
08/08:30pm SE 9 11 - - - - - - - 16.0 1019.4 0.0
08/08:00pm SE 7 13 - - - - - - - 16.1 1019.2 0.0
08/07:30pm ESE 8 13 - - - - - - - 16.1 1019.0 0.0
08/07:00pm ESE 6 10 - - - - - - - 16.0 1018.7 0.0
08/06:30pm E 7 12 - - - - - - - 16.1 1018.2 0.0
08/06:00pm ESE 9 12 - - - - - - - 16.2 1018.0 0.0
08/05:30pm ESE 9 15 - - - - - - - 16.3 1017.6 0.0
08/05:00pm SE 11 15 - - - - - - - 16.9 1017.5 0.0
08/04:30pm SE 11 16 - - - - - - - 17.4 1017.4 0.0
08/04:00pm SE 11 17 - - - - - - - 17.7 1017.1 0.0
08/03:30pm SE 12 17 - - - - - - - 18.2 1016.8 0.0
08/03:00pm SE 11 17 - - - - - - - 18.6 1016.8 0.0
08/02:30pm SE 12 19 - - - - - - - 18.6 1017.1 0.0
08/02:00pm SSE 14 21 - - - - - - - 18.7 1017.2 0.0
08/01:30pm SSE 17 22 - - - - - - - 18.7 1017.5 0.0
08/01:00pm SSE 16 21 - - - - - - - 18.8 1017.7 0.0
08/12:30pm SSE 16 22 - - - - - - - 19.0 1018.2 0.0
08/12:00pm SSE 15 20 - - - - - - - 19.1 1018.6 0.0
08/11:30am SSE 15 20 - - - - - - - 18.7 1018.9 0.0
08/11:00am SSE 13 18 - - - - - - - 19.0 1019.4 0.0
08/10:30am SSE 13 19 - - - - - - - 18.9 1019.7 0.0
08/10:00am SSE 13 17 - - - - - - - 18.5 1019.8 0.0
08/09:30am SSE 12 15 - - - - - - - 18.2 1019.9 0.0
08/09:00am SSE 13 17 - - - - - - - 17.8 1019.5 -
08/08:30am S 14 18 - - - - - - - 17.7 1019.2 -
08/08:00am SSE 14 19 - - - - - - - 17.8 1019.0 -
08/07:30am SSE 11 15 - - - - - - - 17.4 1018.8 -
08/07:00am SSE 11 15 - - - - - - - 16.9 1018.5 -
08/06:30am SSE 10 13 - - - - - - - 16.4 1018.3 -
08/06:00am SSE 9 12 - - - - - - - 16.3 1017.8 -
08/05:30am SSE 12 16 - - - - - - - 16.7 1017.5 -
08/05:00am SSE 10 13 - - - - - - - 16.5 1017.2 -
08/04:30am SSE 10 13 - - - - - - - 16.8 1017.0 -
08/04:00am SSE 10 13 - - - - - - - 17.0 1016.7 -
08/03:30am SSE 9 12 - - - - - - - 16.9 1016.7 -
08/03:00am SSE 9 11 - - - - - - - 17.0 1016.7 0.0
08/02:30am SSE 10 14 - - - - - - - 17.3 1016.7 -
08/02:00am SE 9 12 - - - - - - - 17.3 1017.1 -
08/01:30am SSE 9 12 - - - - - - - 17.1 1017.3 -
08/01:00am SSE 9 12 - - - - - - - 17.2 1017.5 -
08/12:30am SE 9 12 - - - - - - - 17.5 1017.7 -
08/12:00am SE 9 11 - - - - - - - 17.4 1017.9 -

Other formats

Comma delimited format used in spreadsheet applications
http://www.bom.gov.au/fwo/IDQ60701/IDQ60701.94372.axf

JavaScript Object Notation format (JSON) in row-major order
http://www.bom.gov.au/fwo/IDQ60701/IDQ60701.94372.json

Data quality

Most of these data are generated automatically and are frequently updated. Quality checks on data are not normally performed. It is possible for incorrect values to appear. Refer to information at About Latest Weather Observations and please check the disclaimer before using these data.